Temperature
11 9 9 10 10 12 12 12 12 12 12 12 11 11 11 12 11 11 11 11 10 10 9 9 9 9 9 9 9 9 9 9 9 9 9 9 9 9 9 9 9 9 9 9
9 8 10 11 11 11 11 11 11 11 11 11 11 11 11 11 11 11 11 11 10 9 9 8 8 9 9 9 9 9 9 9 8 8 8 8 8 8 8 8 8 8 8 8
9 9 10 10 10 10 10 10 11 11 10 10 10 9 10 11 11 11 11 10 10 9 8 8 8 8 8 8 8 8 8 8 8 8 8 8 8 7 7 7 8 8 8 8
9 9 9 9 9 9 9 10 10 10 8 8 9 8 10 10 10 10 10 10 9 9 8 8 7 7 7 7 7 7 7 7 7 7 7 7 7 7 7 7 7 7 7 7
8 8 8 8 9 9 8 9 9 9 8 7 8 7 8 10 9 9 9 9 9 8 8 8 7 7 7 7 7 7 7 7 7 7 7 7 7 6 6 6 6 6 7 7
7 8 8 8 8 9 8 8 8 8 7 6 7 7 8 9 9 9 9 9 8 8 7 7 7 6 6 6 6 6 6 6 6 6 6 6 6 6 6 6 6 6 6 6
7 7 7 8 7 7 7 6 6 6 6 6 8 8 8 9 9 8 7 8 7 7 7 6 6 5 5 6 6 6 6 6 6 6 5 6 6 6 6 6 6 5 5 5
6 6 6 7 7 6 6 7 6 6 7 7 7 7 7 8 7 8 8 7 7 6 6 5 5 5 5 5 5 5 5 5 5 5 5 5 5 5 5 5 5 5 5 5
6 6 6 7 7 7 6 6 7 6 6 6 7 8 8 7 6 6 6 6 6 5 5 5 5 4 4 5 5 5 4 4 5 5 4 5 5 5 5 5 5 5 4 4
6 5 5 6 6 6 6 6 5 5 6 6 7 8 7 6 6 6 5 5 5 5 5 4 4 4 4 4 4 4 4 4 4 4 4 4 4 4 4 4 4 4 4 4
6 4 4 4 4 5 5 5 5 5 6 6 6 7 7 7 6 5 5 5 5 4 4 4 4 3 3 3 3 3 3 3 3 3 3 3 3 4 4 4 3 3 3 3
5 4 3 4 4 5 5 5 5 4 4 5 5 5 6 6 6 6 5 5 4 4 4 3 3 3 3 3 3 2 3 3 3 3 3 3 3 3 3 3 3 3 3 3
4 3 3 3 3 3 3 4 4 4 4 4 5 5 5 5 5 5 5 4 4 3 3 3 2 2 2 2 2 2 2 2 2 2 2 2 2 2 2 2 2 2 2 2
4 3 3 4 4 3 2 3 3 3 3 3 4 5 4 4 4 4 4 4 3 3 2 2 2 2 2 2 2 2 2 2 2 2 2 2 2 1 1 1 1 1 2 1
2 2 2 3 3 3 3 2 2 2 3 3 4 4 4 4 3 4 3 3 3 2 2 2 1 1 1 1 1 1 1 1 1 1 1 1 1 1 1 1 1 1 1 1
1 1 2 2 3 3 2 2 2 2 2 2 3 3 3 4 4 3 3 3 2 2 1 1 1 1 1 1 1 1 1 1 1 0 0 0 0 0 0 0 0 0 0 -0
0 0 1 2 2 2 1 1 1 2 2 2 2 3 3 2 2 2 2 2 2 2 1 1 1 1 0 0 0 0 0 -0 -0 -0 -0 -0 -0 -0 -0 -1 -1 -1 -1 -1
-0 0 1 1 1 1 2 2 2 2 1 1 1 1 2 2 2 2 2 1 1 1 1 1 0 0 0 -0 -0 -0 -1 -1 -1 -1 -1 -1 -1 -1 -1 -1 -1 -1 -1 -2
-1 -0 0 1 1 2 2 1 1 1 0 0 0 1 1 1 1 1 1 1 1 1 0 0 -0 -0 -0 -0 -0 -1 -1 -1 -1 -1 -1 -1 -1 -1 -1 -2 -2 -2 -2 -2
-1 -1 -0 1 1 1 2 1 1 1 -0 0 0 -0 -0 -0 -1 -1 1 0 0 -0 -0 -0 -1 -1 -1 -1 -1 -1 -1 -1 -1 -2 -1 -2 -2 -2 -2 -2 -2 -2 -3 -3
-2 -1 -1 -0 0 1 0 -0 1 0 0 0 0 -0 -0 -1 -1 -0 -0 -0 -1 -1 -1 -1 -1 -1 -1 -1 -1 -1 -2 -2 -2 -2 -2 -2 -2 -2 -2 -3 -3 -3 -3 -3
-1 -1 -1 -0 -0 0 -1 -1 -1 -1 0 0 0 -0 -1 -1 -1 -1 -1 -1 -1 -1 -1 -2 -2 -2 -2 -2 -2 -2 -2 -2 -2 -2 -2 -3 -3 -3 -3 -3 -3 -3 -4 -4
-1 -1 -1 -1 -0 -0 -1 -1 -0 -0 -0 -0 -1 -1 -1 -1 -2 -2 -2 -2 -2 -2 -2 -2 -2 -2 -2 -2 -2 -2 -3 -3 -3 -3 -3 -3 -3 -3 -4 -4 -4 -4 -4 -4
-2 -1 -1 -1 -1 -1 -0 -0 -0 -1 -1 -1 -1 -1 -1 -2 -2 -2 -2 -3 -3 -3 -3 -3 -3 -3 -3 -3 -3 -3 -3 -3 -3 -3 -3 -4 -4 -4 -4 -4 -4 -4 -5 -5
-1 -2 -2 -2 -2 -1 -1 -1 -1 -1 -1 -2 -2 -2 -2 -2 -3 -3 -3 -3 -3 -3 -3 -3 -3 -3 -3 -3 -3 -4 -4 -4 -4 -4 -4 -4 -4 -4 -4 -4 -5 -5 -5 -5
-2 -3 -3 -2 -2 -2 -1 -1 -1 -2 -2 -2 -2 -3 -3 -3 -3 -3 -3 -3 -4 -4 -4 -4 -4 -4 -4 -4 -4 -4 -4 -4 -4 -4 -4 -5 -5 -5 -5 -5 -5 -5 -5 -5
Wind_Speed
5 3 6 7 8 6 4 5 5 3 2 5 9 9 8 8 8 8 7 7 7 6 5 4 4 3 3 3 3 3 3 2 2 1 1 1 0 1 1 3 3 3 3 2
4 6 6 4 5 6 7 7 6 1 2 3 6 9 8 9 10 8 8 8 8 7 6 6 4 4 3 3 3 2 2 2 2 1 1 1 0 0 0 2 3 4 4 3
6 1 4 6 5 6 7 6 5 2 2 4 4 7 9 8 8 8 8 7 7 7 7 6 5 4 3 3 2 2 2 2 1 1 1 1 1 1 1 1 1 2 3 2
5 3 2 4 5 5 5 3 4 2 2 3 3 4 5 6 7 8 7 6 6 5 6 6 5 5 4 3 2 2 2 2 1 1 1 1 1 0 1 1 1 1 1 2
3 3 4 5 4 4 1 1 2 3 3 4 5 5 6 6 7 7 7 6 5 5 6 5 5 5 4 3 2 1 2 2 1 1 1 1 1 0 1 1 1 1 0 1
1 1 1 2 1 2 2 1 2 2 2 5 8 7 5 6 8 7 6 5 4 4 5 5 5 5 4 3 3 2 1 1 1 1 1 1 1 0 0 1 2 2 1 1
2 3 1 0 2 3 3 2 1 2 4 6 5 6 6 2 3 5 7 5 5 4 4 5 5 4 4 3 2 2 1 1 0 1 1 1 0 0 1 1 1 2 2 1
4 4 6 4 3 4 6 5 4 4 4 2 4 6 3 3 4 4 5 5 4 5 4 4 4 4 3 3 2 2 1 0 1 0 0 1 1 0 1 1 1 2 2 2
3 2 2 2 1 2 4 5 1 0 2 3 5 3 1 4 4 4 4 5 4 4 4 4 3 3 3 3 2 2 1 1 0 1 1 1 1 1 1 1 2 2 2 2
0 2 2 1 1 2 2 2 3 3 3 4 4 4 4 5 5 4 4 4 3 4 3 3 3 3 3 3 2 1 1 1 1 0 1 1 1 1 1 1 1 2 2 2
1 2 2 2 5 5 4 4 4 3 3 3 3 2 2 3 5 5 5 4 4 4 3 2 2 2 3 2 2 1 1 0 0 0 1 1 1 1 1 1 1 2 2 2
2 2 3 3 1 2 2 4 5 4 4 3 2 3 3 4 4 5 4 3 3 3 3 3 3 2 2 2 1 1 1 1 0 0 0 1 1 0 1 1 2 2 2 3
2 3 2 1 1 1 2 3 3 2 1 3 4 3 2 4 4 3 3 3 3 3 3 2 2 2 2 1 1 1 1 1 1 1 1 1 1 1 1 1 1 2 2 2
1 2 4 4 2 4 4 4 4 4 4 5 6 5 3 1 1 1 2 2 2 2 2 1 1 1 1 1 1 1 1 1 1 1 1 1 1 1 1 1 2 2 2 2
1 2 3 3 3 1 4 6 7 8 8 6 5 6 6 3 2 1 1 1 2 2 2 1 0 0 1 1 1 1 1 1 1 1 1 1 1 1 2 2 2 2 2 2
1 2 1 3 3 2 5 7 8 9 8 9 8 9 5 3 1 1 1 1 1 2 2 1 1 0 0 0 0 1 1 1 1 1 1 1 1 1 2 2 2 2 2 2
2 3 2 3 1 2 6 7 9 6 6 6 9 8 3 2 2 2 2 2 2 2 2 2 1 1 1 0 0 1 0 0 1 1 1 1 1 1 1 2 2 2 2 2
4 3 2 1 0 6 5 2 5 6 6 6 5 4 3 3 3 2 1 1 1 1 1 2 1 1 1 0 0 0 0 0 1 1 1 1 1 1 1 1 2 2 2 2
2 4 2 2 4 6 3 1 2 4 5 5 7 5 4 2 3 1 0 1 1 1 1 2 1 1 1 1 1 1 1 1 1 1 1 1 0 1 1 2 2 2 2 2
1 2 3 3 4 5 3 1 2 2 3 2 4 5 3 1 2 3 1 0 1 0 1 1 1 1 1 1 1 1 1 1 2 1 1 1 1 1 1 2 2 2 2 2
4 4 5 5 5 5 1 1 3 3 5 2 1 3 3 3 4 2 1 1 1 0 1 1 1 1 1 1 1 1 1 2 2 1 1 1 1 1 1 2 2 2 2 2
6 5 6 5 5 6 2 3 4 3 1 2 1 1 2 1 0 0 1 1 0 1 1 1 1 1 1 1 1 1 2 2 1 0 1 1 1 1 1 1 2 2 2 2
6 6 4 5 5 2 4 3 2 0 1 2 1 1 1 1 1 1 1 1 1 1 0 1 1 1 1 1 1 2 3 1 1 1 2 2 2 2 2 2 2 2 2 2
4 2 2 3 4 3 4 2 2 1 1 1 1 0 1 1 2 2 2 2 1 1 0 0 1 1 2 2 1 2 2 1 1 1 2 2 2 2 2 2 2 2 2 3
3 4 3 4 4 2 3 3 2 0 0 1 1 1 1 2 2 3 2 2 2 1 1 1 1 2 3 2 2 2 2 1 1 2 2 2 2 2 2 2 2 3 3 4
4 5 5 5 3 3 2 1 1 1 2 1 1 1 1 2 3 2 2 2 1 1 1 1 2 2 3 3 3 2 1 2 2 2 2 2 2 2 2 2 3 4 5 6
Wind_Direction
188 196 208 209 218 249 269 251 244 224 181 220 232 236 226 209 212 207 200 192 188 184 166 159 156 143 126 109 98 96 106 111 108 106 119 123 27 359 17 37 26 19 11 1
183 223 224 220 223 244 257 259 256 242 183 234 248 252 237 222 216 205 201 196 188 180 169 166 156 144 135 124 115 112 108 113 107 111 143 161 158 148 88 33 22 22 16 9
205 189 214 222 227 230 243 247 257 255 286 242 258 262 227 217 216 207 204 200 187 182 174 167 157 144 131 123 128 132 121 112 108 116 117 98 80 64 48 18 356 5 5 7
228 227 221 213 224 227 239 248 264 246 252 246 202 265 236 196 203 205 202 194 184 176 168 165 161 148 140 132 125 120 114 103 103 123 126 124 114 308 315 303 299 320 1 6
215 185 206 218 228 225 210 317 276 242 245 273 223 234 260 192 205 203 195 191 178 170 161 158 152 140 128 124 116 110 119 102 86 104 133 134 78 4 337 335 329 294 303 12
270 342 283 238 236 211 151 270 304 263 229 251 216 208 259 202 202 191 186 173 165 157 151 142 128 123 119 113 105 96 99 105 100 90 97 92 103 34 325 335 337 310 288 281
204 205 187 120 137 166 195 155 134 217 217 238 188 204 243 199 139 157 162 154 144 135 130 135 133 136 138 131 125 118 95 52 85 84 72 59 65 249 247 267 297 311 290 282
191 207 183 193 193 186 202 194 186 211 230 242 187 220 231 109 92 98 117 128 128 135 131 131 143 149 148 142 133 127 124 325 344 26 332 289 285 249 293 310 305 286 280 278
200 184 119 161 216 202 184 214 234 210 280 259 230 218 171 116 120 122 115 120 129 140 130 125 128 143 141 140 138 141 166 200 331 357 324 289 313 344 331 337 329 303 295 315
248 166 176 132 184 279 265 162 142 182 221 248 242 215 213 183 182 158 148 150 143 119 111 114 122 129 134 139 141 141 146 173 203 239 285 313 326 339 328 318 335 323 320 335
235 160 163 173 201 194 184 189 194 207 234 223 251 246 15 128 141 147 147 144 139 128 121 109 101 109 112 113 118 114 128 106 341 319 333 336 303 326 337 320 327 333 345 349
202 170 205 202 142 357 227 207 185 192 228 218 245 270 19 64 88 112 126 130 124 113 102 91 87 97 102 109 108 101 85 48 352 332 344 315 287 299 324 324 341 340 337 341
156 156 156 216 267 261 250 237 219 211 217 223 223 244 84 87 82 91 111 113 105 109 102 86 82 89 92 93 91 80 66 33 10 7 347 330 318 348 331 329 333 331 334 335
114 197 208 217 202 168 206 223 208 195 212 232 231 240 238 195 146 113 104 115 115 130 131 116 96 84 83 81 85 63 42 39 9 4 359 348 341 354 345 338 331 323 322 323
135 221 239 266 291 227 225 220 206 214 226 227 250 258 255 236 214 203 166 149 144 153 147 136 119 75 90 66 53 54 33 29 10 3 360 338 346 4 6 353 338 329 324 326
156 222 261 255 229 244 261 244 222 226 238 247 267 273 266 247 206 226 192 186 201 189 181 183 182 180 11 43 29 45 23 17 6 337 335 351 359 14 9 356 351 349 345 337
162 168 197 243 227 294 259 233 216 219 223 219 238 250 267 273 239 234 238 214 212 195 190 193 195 205 228 290 287 209 216 348 327 310 333 338 341 358 355 344 354 348 340 335
159 169 193 245 254 238 240 202 197 209 232 222 237 266 265 260 264 258 216 191 222 201 201 208 196 183 177 195 272 202 171 228 250 251 278 306 336 348 347 344 339 329 330 332
171 166 191 200 239 261 239 213 166 193 254 229 232 257 282 333 325 279 179 159 214 204 198 193 178 167 160 181 210 170 217 231 235 241 251 296 353 347 339 326 319 320 326 326
144 160 189 211 231 242 228 131 121 112 265 259 217 239 242 90 253 259 342 5 291 249 132 130 122 121 153 189 156 186 231 233 241 247 258 279 288 287 292 298 308 316 314 306
166 189 208 221 236 254 230 163 125 169 245 308 224 227 200 209 234 258 23 6 340 98 107 109 118 151 204 199 156 229 241 243 253 276 293 283 274 267 269 287 299 304 306 306
179 184 196 199 222 240 164 139 178 212 341 360 347 225 200 230 284 358 354 330 18 91 110 120 144 214 244 204 197 241 252 251 236 253 272 269 263 269 282 276 290 294 295 297
197 196 189 198 213 198 162 177 203 247 305 325 333 315 152 197 259 276 287 289 274 225 184 146 169 237 263 239 208 240 264 256 213 238 258 268 272 269 259 255 263 281 287 287
208 192 202 246 246 217 201 211 241 261 284 347 352 295 161 225 248 265 270 272 260 257 212 178 199 251 274 274 252 249 261 245 214 239 260 270 262 274 272 274 266 264 269 275
193 173 199 239 256 261 225 213 218 205 22 357 343 286 217 218 243 251 257 251 250 267 272 230 233 256 274 283 276 272 263 228 229 251 260 265 262 258 267 280 274 271 259 258
193 187 195 222 209 205 234 177 147 197 238 234 253 283 265 235 247 258 258 254 253 258 261 255 257 262 273 279 276 271 250 220 219 245 252 254 257 261 263 273 298 300 287 286
Height
1483 1486 1487 1484 1484 1483 1482 1483 1484 1485 1486 1488 1489 1488 1488 1489 1490 1492 1493 1495 1497 1499 1501 1503 1504 1505 1506 1507 1508 1509 1511 1511 1512 1512 1513 1514 1515 1515 1516 1517 1518 1519 1519 1520
1484 1485 1483 1482 1482 1483 1483 1485 1484 1485 1485 1487 1487 1486 1484 1484 1485 1487 1489 1491 1494 1496 1498 1500 1501 1502 1503 1505 1506 1507 1508 1509 1509 1510 1511 1512 1512 1513 1514 1514 1515 1516 1516 1517
1481 1481 1481 1482 1483 1484 1484 1485 1485 1486 1487 1486 1488 1486 1480 1479 1481 1483 1485 1487 1490 1492 1494 1496 1498 1499 1500 1502 1503 1504 1505 1506 1507 1508 1509 1509 1510 1510 1511 1511 1511 1512 1513 1514
1480 1480 1481 1482 1483 1484 1486 1484 1484 1487 1492 1493 1490 1495 1479 1476 1478 1480 1482 1484 1486 1489 1491 1493 1495 1496 1498 1499 1501 1502 1503 1504 1505 1506 1506 1507 1507 1507 1508 1508 1509 1509 1510 1510
1479 1480 1481 1482 1483 1483 1486 1484 1485 1487 1491 1494 1490 1495 1483 1475 1477 1477 1479 1481 1483 1486 1488 1490 1492 1494 1495 1497 1498 1500 1501 1502 1502 1503 1504 1504 1505 1505 1506 1506 1506 1506 1507 1507
1480 1480 1481 1481 1482 1483 1486 1487 1488 1488 1493 1499 1488 1491 1481 1473 1471 1473 1476 1478 1481 1484 1486 1488 1490 1491 1493 1495 1496 1497 1498 1499 1500 1500 1501 1501 1502 1503 1503 1503 1503 1503 1503 1503
1482 1481 1481 1482 1484 1485 1487 1492 1498 1498 1499 1492 1480 1484 1479 1469 1468 1470 1473 1476 1479 1482 1484 1485 1487 1489 1490 1492 1493 1494 1496 1496 1497 1498 1498 1499 1499 1499 1500 1500 1500 1500 1500 1500
1482 1483 1481 1481 1482 1484 1486 1487 1494 1496 1491 1483 1483 1482 1474 1469 1469 1470 1472 1475 1478 1481 1483 1484 1485 1487 1488 1489 1490 1492 1493 1494 1494 1495 1495 1496 1496 1496 1497 1497 1497 1497 1497 1496
1477 1481 1479 1480 1481 1482 1484 1487 1485 1490 1491 1490 1480 1472 1470 1469 1470 1471 1473 1475 1478 1480 1481 1483 1484 1485 1486 1487 1488 1489 1490 1491 1491 1492 1493 1493 1493 1493 1493 1493 1493 1494 1493 1493
1475 1483 1482 1482 1482 1483 1483 1483 1490 1492 1491 1485 1474 1470 1473 1472 1471 1472 1474 1475 1477 1479 1480 1481 1482 1483 1484 1485 1486 1487 1487 1488 1488 1489 1490 1490 1490 1490 1490 1490 1490 1490 1490 1489
1475 1483 1485 1484 1485 1484 1485 1486 1486 1487 1485 1485 1481 1475 1468 1467 1468 1471 1473 1475 1476 1478 1479 1480 1481 1481 1482 1483 1484 1485 1485 1485 1486 1486 1486 1487 1487 1487 1487 1487 1486 1486 1486 1486
1475 1479 1484 1482 1481 1481 1481 1481 1484 1489 1487 1483 1483 1481 1469 1469 1469 1471 1473 1475 1476 1477 1478 1479 1480 1480 1481 1481 1482 1482 1482 1483 1483 1483 1483 1483 1484 1483 1483 1484 1483 1483 1483 1482
1476 1480 1485 1485 1488 1486 1484 1481 1482 1484 1485 1484 1484 1481 1471 1470 1471 1472 1473 1474 1476 1476 1477 1478 1479 1479 1479 1480 1480 1480 1480 1480 1480 1480 1480 1480 1480 1479 1480 1480 1480 1480 1479 1479
1475 1479 1480 1479 1476 1480 1483 1482 1482 1485 1486 1483 1478 1475 1473 1472 1472 1473 1474 1474 1475 1476 1476 1477 1477 1478 1478 1478 1478 1478 1478 1478 1478 1478 1478 1477 1477 1477 1477 1477 1477 1476 1476 1475
1476 1479 1478 1476 1474 1475 1477 1479 1481 1483 1480 1480 1474 1472 1469 1470 1471 1471 1472 1473 1474 1474 1475 1475 1475 1476 1476 1476 1476 1476 1475 1475 1475 1475 1475 1474 1474 1474 1474 1474 1474 1473 1473 1472
1476 1479 1479 1478 1475 1476 1477 1475 1476 1477 1477 1476 1474 1472 1467 1468 1469 1470 1471 1471 1472 1473 1473 1473 1474 1474 1474 1474 1473 1473 1473 1473 1473 1472 1472 1472 1472 1471 1471 1471 1471 1470 1470 1469
1477 1480 1481 1479 1477 1476 1478 1473 1472 1472 1470 1471 1472 1468 1466 1467 1467 1468 1468 1469 1470 1470 1471 1471 1471 1471 1471 1471 1471 1471 1470 1470 1470 1470 1470 1470 1469 1469 1468 1468 1468 1467 1467 1466
1477 1479 1480 1480 1481 1483 1468 1463 1463 1465 1466 1466 1466 1464 1464 1465 1465 1466 1466 1467 1467 1468 1468 1469 1469 1469 1469 1469 1469 1468 1468 1468 1468 1467 1467 1467 1467 1466 1466 1465 1465 1465 1464 1463
1474 1477 1478 1480 1479 1469 1465 1463 1463 1465 1466 1463 1463 1463 1463 1463 1464 1464 1464 1465 1465 1466 1466 1466 1466 1466 1466 1466 1466 1466 1466 1465 1465 1465 1465 1465 1464 1464 1463 1463 1463 1462 1461 1461
1474 1475 1478 1476 1475 1471 1462 1461 1460 1464 1467 1460 1459 1460 1461 1462 1466 1463 1462 1462 1462 1463 1463 1463 1463 1464 1464 1464 1463 1463 1463 1463 1463 1463 1463 1462 1462 1461 1461 1460 1460 1460 1459 1458
1475 1475 1476 1474 1473 1465 1462 1460 1461 1468 1464 1458 1457 1457 1459 1460 1461 1460 1460 1460 1460 1460 1460 1461 1461 1461 1461 1461 1461 1461 1460 1460 1460 1460 1460 1460 1460 1459 1458 1458 1458 1457 1456 1456
1468 1470 1471 1471 1471 1466 1461 1460 1462 1461 1458 1457 1456 1456 1457 1457 1458 1457 1457 1457 1457 1457 1458 1458 1458 1458 1458 1459 1458 1458 1458 1458 1458 1457 1457 1457 1457 1456 1456 1456 1455 1455 1454 1453
1461 1462 1461 1463 1462 1457 1456 1456 1456 1457 1456 1456 1455 1455 1455 1455 1455 1455 1455 1455 1455 1455 1455 1455 1455 1455 1456 1456 1456 1455 1455 1455 1455 1454 1454 1454 1454 1454 1454 1453 1452 1452 1451 1451
1458 1457 1458 1458 1455 1454 1454 1454 1454 1454 1455 1454 1454 1454 1453 1453 1453 1453 1453 1453 1452 1453 1453 1453 1453 1452 1452 1453 1453 1453 1452 1452 1452 1451 1451 1451 1451 1451 1451 1450 1450 1449 1449 1448
1452 1455 1456 1456 1453 1452 1451 1451 1452 1452 1452 1452 1452 1452 1451 1451 1451 1450 1450 1450 1450 1450 1450 1450 1450 1450 1450 1449 1449 1449 1449 1449 1448 1448 1448 1448 1448 1448 1448 1448 1447 1447 1446 1446
1449 1451 1453 1451 1449 1450 1449 1448 1449 1449 1448 1449 1449 1448 1448 1448 1448 1447 1447 1447 1447 1447 1447 1447 1447 1447 1446 1446 1446 1446 1446 1446 1445 1445 1445 1445 1445 1445 1445 1444 1444 1444 1444 1443